Location: Staunton
(38.1490°N, 79.0720°W)
Time: 03:28:13
(UTC-04:00)

ISS - Pass Details

Date: 22 September 2017
Orbit: 401 x 407 km, 51.6° (Epoch: 23 September)

Event Time Altitude Azimuth Distance (km) Brightness Sun altitude
Exits shadow 05:54:23 18° 207° (SSW) 1,089 -2.0 -14.5°
Drops below altitude 10° 05:55:55 10° 181° (S) 1,456 -1.1 -14.2°
Sets 05:58:21 0° 163° (SSE) 2,310 0.1 -13.7°
